Content
SEND FEEDBACK

Daily
Averages
Monthly
Summary
United States of America

INARAJAN, GUAM


Home > North America > United States > Guam
Elevation: 280 feet     Latitude: 13 18N     Longitude: 144 44E

WEATHER
 
SELECT A DAY
Number of Records: 342,219;   Date Range: 1/1/95 - 8/28/14
 
SHARE

PRINT THIS DATA

[ ← Previous Day ]
WEATHER ALMANAC - JULY 21, 2013
[ Next Day → ]
[ °C ]   °F
Weather ElementAverageHighLow
Temperature81.3 °F86 °F (12:06 pm)75.9 °F (1:55 am)
Dewpoint77.5 °F82.4 °F (12:06 pm)71.4 °F (1:55 am)
Humidity88.4 %100 % (8:34 pm)66 % (1:55 pm)
Barometer29.79 in29.87 in (10:04 pm)29.74 in (3:55 pm)
Wind Speed6.6 mph11.5 mph (8:55 pm)
Weather ElementAverage
Visibility9.2 mi
Wind DirectionENE (72.3 °)

Weather ElementTotal
Precipitation0.19 in
Cooling Degree Days16 (Base 65)
Growing Degree Days31 (Base 50)
Averaged from 73 records on July 21, 2013
WEATHER CONDITIONS BREAKOUT
WIND DIRECTION BREAKOUT
WEATHER BY HOUR - JULY 21, 2013
[ °C ]   °F
Local TimeTemperatureDewpointHumidityBarometerVisibilityWind DirectionWind SpeedGust SpeedPrecipitationEventsConditions
1:55 AM75.9 °F71.4 °F86 %29.79 in10.0 miCalmClear
2:55 AM75.9 °F71.4 °F86 %29.78 in10.0 miCalmClear
3:55 AM77.0 °F73.8 °F90 %29.77 in10.0 miCalmClear
4:26 AM77.0 °F73.4 °F89 %29.78 in10.0 miCalmLight Drizzle
4:31 AM77.0 °F73.4 °F89 %29.78 in4.0 miCalmRainRain
4:32 AM77.0 °F73.4 °F89 %29.78 in2.5 miCalmRainRain
4:34 AM77.0 °F73.4 °F89 %29.78 in2.0 miNorth (360°)3.5 mphRainHeavy Rain
4:35 AM77.0 °F73.4 °F89 %29.77 in1.8 miNorth (10°)3.5 mphRainHeavy Rain
4:41 AM77.0 °F71.6 °F83 %29.77 in2.0 miCalmRainLight Rain
4:42 AM77.0 °F71.6 °F83 %29.77 in2.5 miNNE (30°)3.5 mphRainLight Rain
4:44 AM77.0 °F73.4 °F89 %29.77 in3.0 miNNE (30°)3.5 mphRainLight Rain
4:55 AM77.7 °F74.3 °F89 %29.77 in7.0 miCalm0.12 inRainLight Rain
5:18 AM77.0 °F75.2 °F94 %29.77 in8.0 miCalmLight Drizzle
5:23 AM77.0 °F75.2 °F94 %29.78 in7.0 miCalmRainLight Rain
5:54 AM77.0 °F73.4 °F89 %29.77 in10.0 miCalmLight Drizzle
5:55 AM77.2 °F72.7 °F86 %29.77 in10.0 miCalm0.07 inMostly Cloudy
6:55 AM78.3 °F74.1 °F87 %29.78 in10.0 miCalmClear
7:55 AM80.6 °F77.5 °F90 %29.80 in10.0 miNNW (340°)3.5 mphScattered Clouds
8:34 AM82.4 °F77.0 °F84 %29.81 in10.0 miESE (110°)4.6 mphMostly Cloudy
8:36 AM82.4 °F77.0 °F84 %29.81 in10.0 miEast (100°)5.8 mphScattered Clouds
8:55 AM82.6 °F78.1 °F86 %29.81 in10.0 miEast (100°)3.5 mphScattered Clouds
9:48 AM84.2 °F80.6 °F89 %29.80 in10.0 miEast (100°)6.9 mphMostly Cloudy
9:50 AM84.2 °F80.6 °F89 %29.80 in10.0 miESE (110°)6.9 mphScattered Clouds
9:55 AM83.3 °F79.3 °F88 %29.80 in10.0 miSE (130°)6.9 mphScattered Clouds
10:29 AM84.2 °F80.6 °F89 %29.80 in10.0 miEast (80°)3.5 mphMostly Cloudy
10:51 AM84.2 °F80.6 °F89 %29.80 in10.0 miESE (120°)5.8 mphScattered Clouds
10:55 AM85.3 °F80.8 °F86 %29.79 in10.0 miESE (110°)5.8 mphScattered Clouds
11:55 AM85.1 °F81.5 °F89 %29.78 in10.0 miESE (110°)9.2 mphScattered Clouds
11:57 AM84.2 °F80.6 °F89 %29.78 in10.0 miEast (100°)9.2 mphMostly Cloudy
12:06 PM86.0 °F82.4 °F89 %29.78 in10.0 miSE (130°)10.4 mphScattered Clouds
12:09 PM86.0 °F80.6 °F84 %29.78 in10.0 miSE (130°)10.4 mphMostly Cloudy
12:22 PM84.2 °F80.6 °F89 %29.78 in10.0 miEast (100°)8.1 mphMostly Cloudy
12:24 PM84.2 °F80.6 °F89 %29.78 in10.0 miENE (70°)9.2 mphMostly Cloudy
12:26 PM84.2 °F80.6 °F89 %29.78 in10.0 miEast (80°)8.1 mphMostly Cloudy
12:55 PM84.7 °F80.4 °F87 %29.77 in10.0 miEast (90°)8.1 mphMostly Cloudy
1:55 PM85.3 °F72.9 °F66 %29.75 in10.0 miESE (120°)10.4 mphScattered Clouds
2:17 PM86.0 °F73.4 °F66 %29.75 in10.0 miESE (120°)10.4 mphMostly Cloudy
2:55 PM84.4 °F79.3 °F85 %29.75 in10.0 miEast (90°)9.2 mphMostly Cloudy
3:03 PM84.2 °F78.8 °F84 %29.75 in10.0 miESE (120°)9.2 mphLight Drizzle
3:16 PM82.4 °F75.2 °F79 %29.75 in10.0 miESE (110°)8.1 mphMostly Cloudy
3:18 PM82.4 °F73.4 °F74 %29.75 in10.0 miEast (90°)9.2 mphMostly Cloudy
3:22 PM82.4 °F77.0 °F84 %29.75 in10.0 miEast (90°)6.9 mphMostly Cloudy
3:25 PM82.4 °F78.8 °F89 %29.75 in10.0 miEast (100°)8.1 mphMostly Cloudy
3:26 PM84.2 °F78.8 °F84 %29.75 in10.0 miEast (100°)9.2 mphMostly Cloudy
3:49 PM84.2 °F78.8 °F84 %29.75 in10.0 miEast (90°)9.2 mphScattered Clouds
3:55 PM84.0 °F79.0 °F85 %29.74 in10.0 miEast (80°)9.2 mph0.00 inScattered Clouds
4:55 PM83.7 °F79.0 °F86 %29.74 in10.0 miENE (70°)8.1 mphPartly Cloudy
5:13 PM82.4 °F78.8 °F89 %29.75 in10.0 miEast (80°)8.1 mphMostly Cloudy
5:17 PM82.4 °F78.8 °F89 %29.75 in10.0 miENE (70°)8.1 mphScattered Clouds
5:22 PM82.4 °F78.8 °F89 %29.75 in10.0 miENE (70°)6.9 mphMostly Cloudy
5:38 PM82.4 °F78.8 °F89 %29.75 in10.0 miENE (60°)9.2 mphMostly Cloudy
5:55 PM82.6 °F79.9 °F91 %29.76 in10.0 miNNE (30°)8.1 mphScattered Clouds
6:55 PM81.5 °F79.5 °F94 %29.78 in10.0 miNE (40°)5.8 mphClear
7:58 PM82.4 °F78.8 °F89 %29.80 in10.0 miNE (50°)9.2 mphMostly Cloudy
8:01 PM82.4 °F78.8 °F89 %29.80 in10.0 miENE (60°)10.4 mphScattered Clouds
8:32 PM80.6 °F78.8 °F94 %29.81 in10.0 miENE (60°)10.4 mphMostly Cloudy
8:34 PM80.6 °F80.6 °F100 %29.81 in9.0 miNE (40°)9.2 mphRainRain
8:44 PM80.6 °F80.6 °F100 %29.81 in10.0 miNE (40°)6.9 mphMostly Cloudy
8:49 PM80.6 °F80.6 °F100 %29.81 in10.0 miENE (60°)8.1 mphOvercast
8:54 PM80.6 °F80.6 °F100 %29.81 in10.0 miENE (60°)10.4 mphOvercast
8:55 PM81.0 °F80.2 °F98 %29.81 in10.0 miENE (60°)11.5 mph0.00 inOvercast
9:06 PM80.6 °F78.8 °F94 %29.81 in10.0 miENE (60°)10.4 mphScattered Clouds
9:08 PM80.6 °F78.8 °F94 %29.81 in10.0 miENE (60°)11.5 mphMostly Cloudy
9:12 PM80.6 °F78.8 °F94 %29.81 in10.0 miENE (60°)10.4 mphScattered Clouds
9:55 PM80.4 °F79.2 °F96 %29.82 in10.0 miENE (60°)9.2 mphScattered Clouds
9:59 PM80.6 °F78.8 °F94 %29.82 in10.0 miENE (60°)9.2 mphMostly Cloudy
10:04 PM80.6 °F75.2 °F84 %29.87 in10.0 miENE (60°)6.9 mphScattered Clouds
10:55 PM80.4 °F79.5 °F97 %29.83 in10.0 miENE (60°)8.1 mphScattered Clouds
11:03 PM80.6 °F77.0 °F89 %29.83 in10.0 miEast (80°)8.1 mphMostly Cloudy
11:10 PM80.6 °F77.0 °F89 %29.83 in10.0 miEast (100°)6.9 mphLight Drizzle
11:22 PM80.6 °F75.2 °F84 %29.83 in10.0 miENE (60°)10.4 mphMostly Cloudy
11:24 PM80.6 °F75.2 °F84 %29.83 in10.0 miENE (60°)9.2 mphScattered Clouds
11:55 PM79.5 °F79.2 °F99 %29.82 in10.0 miENE (60°)10.4 mph0.00 inClear
Hourly data recorded from PGUA, located miles away from Inarajan, Guam







STORIES FROM OUR PARTNERS